DAL1504 KPBI-KLGA

Flight info

Callsign DAL1504
Flight time 2h 9m
Altitude 37000
Route SLIDZ3 LENDS GRUBR Y299 SEELO GARIC Q107 HURTS PROUD2
Aircraft A20N/M-SDE2E3FGHIJ1RWXY/LB2

Departure

Time 2026-05-07 22:37
Airport Palm Beach International Airport (KPBI)

Arrival

Time 2026-05-08 00:47
Airport LaGuardia Airport (KLGA)
Time Latitude Longitude Altitude Speed Heading
2026-05-07 22:21 26.68597 -80.09001 29 ft 0 kts 92°
2026-05-07 22:30 26.68598 -80.09025 29 ft 4 kts 96°
2026-05-07 22:30 26.68603 -80.09055 29 ft 4 kts 107°
2026-05-07 22:30 26.68614 -80.09081 29 ft 4 kts 140°
2026-05-07 22:31 26.68627 -80.09089 29 ft 0 kts 182°
2026-05-07 22:33 26.68612 -80.09089 29 ft 5 kts 182°
2026-05-07 22:33 26.68557 -80.09092 29 ft 11 kts 182°
2026-05-07 22:33 26.68473 -80.09096 29 ft 12 kts 182°
2026-05-07 22:34 26.68382 -80.09107 29 ft 14 kts 206°
2026-05-07 22:34 26.68360 -80.09200 29 ft 17 kts 273°
2026-05-07 22:34 26.68369 -80.09400 28 ft 30 kts 272°
2026-05-07 22:34 26.68379 -80.09628 28 ft 29 kts 272°
2026-05-07 22:35 26.68389 -80.09848 28 ft 28 kts 272°
2026-05-07 22:35 26.68397 -80.10060 28 ft 27 kts 273°
2026-05-07 22:35 26.68407 -80.10273 28 ft 27 kts 272°
2026-05-07 22:35 26.68415 -80.10479 28 ft 26 kts 272°
2026-05-07 22:36 26.68423 -80.10678 28 ft 25 kts 274°
2026-05-07 22:36 26.68424 -80.10796 28 ft 10 kts 250°
2026-05-07 22:36 26.68371 -80.10827 28 ft 9 kts 187°
2026-05-07 22:36 26.68318 -80.10800 28 ft 9 kts 97°
2026-05-07 22:37 26.68314 -80.10671 28 ft 38 kts 92°
2026-05-07 22:37 26.68289 -80.10098 29 ft 111 kts 93°
2026-05-07 22:37 26.68261 -80.09387 40 ft 157 kts 94°
2026-05-07 22:37 26.68193 -80.07617 643 ft 183 kts 93°
2026-05-07 22:38 26.68141 -80.06162 1347 ft 190 kts 96°
2026-05-07 22:38 26.68075 -80.04691 2184 ft 195 kts 95°
2026-05-07 22:38 26.68005 -80.03084 2514 ft 218 kts 93°
2026-05-07 22:38 26.67964 -80.01923 2664 ft 235 kts 93°
2026-05-07 22:39 26.67909 -79.99978 2866 ft 262 kts 91°
2026-05-07 22:39 26.67886 -79.97882 3328 ft 276 kts 85°
2026-05-07 22:39 26.68422 -79.95811 3889 ft 281 kts 60°
2026-05-07 22:39 26.69483 -79.93980 4636 ft 281 kts 46°
2026-05-07 22:40 26.70956 -79.92570 5365 ft 280 kts 34°
2026-05-07 22:40 26.72544 -79.91291 6073 ft 282 kts 32°
2026-05-07 22:40 26.74245 -79.90186 6768 ft 284 kts 24°
2026-05-07 22:40 26.76035 -79.89216 7413 ft 287 kts 23°
2026-05-07 22:41 26.77856 -79.88261 8083 ft 291 kts 25°
2026-05-07 22:41 26.79567 -79.86997 8710 ft 298 kts 36°
2026-05-07 22:41 26.81172 -79.85530 9405 ft 300 kts 40°
2026-05-07 22:41 26.82746 -79.83950 9971 ft 306 kts 42°
2026-05-07 22:42 26.84319 -79.82276 10350 ft 319 kts 43°
2026-05-07 22:42 26.85927 -79.80517 10562 ft 336 kts 43°
2026-05-07 22:42 26.87636 -79.78632 10789 ft 352 kts 43°
2026-05-07 22:42 26.89407 -79.76680 11115 ft 362 kts 44°
2026-05-07 22:43 26.91218 -79.74692 11608 ft 366 kts 43°
2026-05-07 22:43 26.93047 -79.72692 12134 ft 369 kts 43°
2026-05-07 22:43 26.94901 -79.70670 12685 ft 372 kts 43°
2026-05-07 22:43 26.96763 -79.68643 13244 ft 375 kts 43°
2026-05-07 22:44 26.98640 -79.66602 13804 ft 378 kts 42°
2026-05-07 22:44 27.00534 -79.64542 14298 ft 381 kts 42°
2026-05-07 22:44 27.02446 -79.62461 14817 ft 384 kts 42°
2026-05-07 22:44 27.04368 -79.60367 15337 ft 387 kts 42°
2026-05-07 22:45 27.06307 -79.58255 15858 ft 390 kts 41°
2026-05-07 22:45 27.08260 -79.56125 16386 ft 393 kts 41°
2026-05-07 22:45 27.10232 -79.53975 16858 ft 398 kts 41°
2026-05-07 22:45 27.12204 -79.51824 17338 ft 402 kts 41°
2026-05-07 22:46 27.14214 -79.49628 17855 ft 404 kts 41°
2026-05-07 22:46 27.16235 -79.47419 18348 ft 407 kts 41°
2026-05-07 22:46 27.18276 -79.45188 18763 ft 411 kts 40°
2026-05-07 22:46 27.20329 -79.42941 19156 ft 414 kts 40°
2026-05-07 22:47 27.22400 -79.40675 19569 ft 417 kts 40°
2026-05-07 22:47 27.24481 -79.38395 19992 ft 420 kts 40°
2026-05-07 22:47 27.26582 -79.36093 20384 ft 423 kts 40°
2026-05-07 22:47 27.28699 -79.33773 20779 ft 426 kts 40°
2026-05-07 22:48 27.30827 -79.31438 21181 ft 430 kts 40°
2026-05-07 22:48 27.32978 -79.29077 21571 ft 433 kts 40°
2026-05-07 22:48 27.35140 -79.26702 21971 ft 436 kts 40°
2026-05-07 22:48 27.37325 -79.24302 22376 ft 440 kts 40°
2026-05-07 22:49 27.39522 -79.21886 22779 ft 443 kts 40°
2026-05-07 22:49 27.41734 -79.19452 23188 ft 446 kts 40°
2026-05-07 22:49 27.43961 -79.17000 23574 ft 450 kts 40°
2026-05-07 22:49 27.46208 -79.14525 23899 ft 453 kts 40°
2026-05-07 22:50 27.48465 -79.12037 24252 ft 455 kts 40°
2026-05-07 22:50 27.50734 -79.09534 24598 ft 457 kts 40°
2026-05-07 22:50 27.52986 -79.07048 24950 ft 460 kts 40°
2026-05-07 22:50 27.55302 -79.04490 25306 ft 461 kts 40°
2026-05-07 22:51 27.57595 -79.01955 25690 ft 463 kts 40°
2026-05-07 22:51 27.59870 -78.99440 26016 ft 465 kts 40°
2026-05-07 22:51 27.62187 -78.96876 26347 ft 467 kts 40°
2026-05-07 22:51 27.64617 -78.94450 26632 ft 466 kts 32°
2026-05-07 22:52 27.67325 -78.92475 26922 ft 461 kts 22°
2026-05-07 22:52 27.70258 -78.91085 27233 ft 455 kts 11°
2026-05-07 22:52 27.73324 -78.90278 27552 ft 452 kts
2026-05-07 22:52 27.76429 -78.89706 27852 ft 452 kts
2026-05-07 22:53 27.79549 -78.89246 28163 ft 453 kts
2026-05-07 22:53 27.82685 -78.88835 28460 ft 454 kts
2026-05-07 22:53 27.85833 -78.88435 28755 ft 456 kts
2026-05-07 22:53 27.88995 -78.88027 29046 ft 458 kts
2026-05-07 22:54 27.92163 -78.87607 29371 ft 460 kts
2026-05-07 22:54 27.95343 -78.87172 29730 ft 460 kts
2026-05-07 22:54 27.98519 -78.86729 30129 ft 459 kts
2026-05-07 22:54 28.01686 -78.86282 30473 ft 458 kts
2026-05-07 22:55 28.04844 -78.85834 30801 ft 457 kts
2026-05-07 22:55 28.07999 -78.85387 31089 ft 457 kts
2026-05-07 22:55 28.11167 -78.84940 31214 ft 462 kts
2026-05-07 22:56 28.17574 -78.84040 31423 ft 471 kts
2026-05-07 22:56 28.20836 -78.83580 31661 ft 473 kts
2026-05-07 22:56 28.24107 -78.83115 31904 ft 473 kts
2026-05-07 22:56 28.27374 -78.82651 32189 ft 473 kts
2026-05-07 22:57 28.30638 -78.82186 32512 ft 472 kts
2026-05-07 22:57 28.33889 -78.81722 32823 ft 471 kts
2026-05-07 22:57 28.37141 -78.81260 33135 ft 470 kts
2026-05-07 22:57 28.40384 -78.80798 33435 ft 469 kts
2026-05-07 22:58 28.43622 -78.80338 33730 ft 468 kts
2026-05-07 22:58 28.46853 -78.79879 34011 ft 467 kts
2026-05-07 22:58 28.50077 -78.79421 34279 ft 467 kts
2026-05-07 22:58 28.53291 -78.78963 34557 ft 465 kts
2026-05-07 22:59 28.56503 -78.78505 34821 ft 463 kts
2026-05-07 22:59 28.59696 -78.78050 35067 ft 462 kts
2026-05-07 22:59 28.62886 -78.77595 35289 ft 462 kts
2026-05-07 22:59 28.66068 -78.77142 35514 ft 461 kts
2026-05-07 23:00 28.69247 -78.76688 35736 ft 460 kts
2026-05-07 23:00 28.72418 -78.76235 35956 ft 459 kts
2026-05-07 23:00 28.75542 -78.75789 36158 ft 458 kts
2026-05-07 23:00 28.78702 -78.75337 36376 ft 457 kts
2026-05-07 23:01 28.81849 -78.74885 36738 ft 452 kts
2026-05-07 23:01 28.84960 -78.74437 36971 ft 450 kts 360°
2026-05-07 23:01 28.88066 -78.73992 37004 ft 448 kts 360°
2026-05-07 23:02 28.94253 -78.73107 37001 ft 447 kts 360°
2026-05-07 23:02 29.00429 -78.72224 37001 ft 447 kts 360°
2026-05-07 23:03 29.06607 -78.71337 37033 ft 448 kts 359°
2026-05-07 23:03 29.12786 -78.70448 36997 ft 448 kts 359°
2026-05-07 23:04 29.18974 -78.69556 36994 ft 448 kts 359°
2026-05-07 23:04 29.25163 -78.68663 36995 ft 448 kts 359°
2026-05-07 23:05 29.31307 -78.67775 36998 ft 448 kts 359°
2026-05-07 23:05 29.37499 -78.66883 37000 ft 449 kts 359°
2026-05-07 23:06 29.43707 -78.66007 36996 ft 450 kts 359°
2026-05-07 23:06 29.49921 -78.65134 36990 ft 450 kts 359°
2026-05-07 23:07 29.56145 -78.64258 36992 ft 450 kts 359°
2026-05-07 23:07 29.62364 -78.63381 37010 ft 450 kts 359°
2026-05-07 23:08 29.68603 -78.62501 36988 ft 453 kts 359°
2026-05-07 23:08 29.74874 -78.61615 36987 ft 455 kts 359°
2026-05-07 23:09 29.81151 -78.60724 36988 ft 455 kts 359°
2026-05-07 23:09 29.87442 -78.59830 36983 ft 454 kts 359°
2026-05-07 23:10 29.93726 -78.58937 36982 ft 455 kts 359°
2026-05-07 23:10 30.00023 -78.58043 36979 ft 456 kts 359°
2026-05-07 23:11 30.06331 -78.57145 36974 ft 457 kts 359°
2026-05-07 23:11 30.12639 -78.56244 36971 ft 456 kts 359°
2026-05-07 23:12 30.18904 -78.55350 36974 ft 456 kts 359°
2026-05-07 23:12 30.25220 -78.54447 36966 ft 456 kts 359°
2026-05-07 23:13 30.31526 -78.53544 36966 ft 456 kts 359°
2026-05-07 23:13 30.37830 -78.52641 36966 ft 457 kts 359°
2026-05-07 23:14 30.44138 -78.51715 36966 ft 457 kts 359°
2026-05-07 23:14 30.50443 -78.50702 36964 ft 457 kts
2026-05-07 23:15 30.56706 -78.49673 36961 ft 457 kts
2026-05-07 23:15 30.63011 -78.48642 36961 ft 457 kts 360°
2026-05-07 23:16 30.69305 -78.47618 36956 ft 457 kts 360°
2026-05-07 23:16 30.75613 -78.46593 36962 ft 457 kts 359°
2026-05-07 23:17 30.81914 -78.45568 36957 ft 457 kts 359°
2026-05-07 23:17 30.88214 -78.44541 36954 ft 457 kts 359°
2026-05-07 23:18 30.94515 -78.43513 36948 ft 457 kts 359°
2026-05-07 23:18 31.00822 -78.42482 36968 ft 457 kts 359°
2026-05-07 23:19 31.07115 -78.41452 36949 ft 456 kts 359°
2026-05-07 23:19 31.13393 -78.40423 36949 ft 456 kts 359°
2026-05-07 23:20 31.19680 -78.39392 36949 ft 456 kts 359°
2026-05-07 23:20 31.25919 -78.38367 36949 ft 456 kts 359°
2026-05-07 23:21 31.32206 -78.37332 36952 ft 456 kts 358°
2026-05-07 23:21 31.38495 -78.36297 36949 ft 456 kts 358°
2026-05-07 23:22 31.44791 -78.35258 36944 ft 457 kts 358°
2026-05-07 23:22 31.51082 -78.34218 36944 ft 457 kts 358°
2026-05-07 23:23 31.57377 -78.33177 36949 ft 457 kts 358°
2026-05-07 23:23 31.63696 -78.32132 36946 ft 459 kts 358°
2026-05-07 23:24 31.68960 -78.31259 36938 ft 460 kts 358°
2026-05-07 23:24 31.76319 -78.30035 36933 ft 460 kts 358°
2026-05-07 23:25 31.82655 -78.28980 36941 ft 460 kts 357°
2026-05-07 23:25 31.87928 -78.28102 36928 ft 460 kts 357°
2026-05-07 23:26 31.94268 -78.27045 36926 ft 460 kts 357°
2026-05-07 23:26 32.00606 -78.25987 36922 ft 460 kts 357°
2026-05-07 23:27 32.10116 -78.24532 36925 ft 459 kts 355°
2026-05-07 23:27 32.16451 -78.23625 36919 ft 459 kts 355°
2026-05-07 23:28 32.22791 -78.22711 36914 ft 459 kts 355°
2026-05-07 23:28 32.29140 -78.21786 36911 ft 459 kts 355°
2026-05-07 23:29 32.35478 -78.20857 36918 ft 459 kts 355°
2026-05-07 23:29 32.41848 -78.19925 36905 ft 462 kts 355°
2026-05-07 23:30 32.48196 -78.18993 36904 ft 463 kts 355°
2026-05-07 23:30 32.54629 -78.18044 36903 ft 463 kts 355°
2026-05-07 23:31 32.60976 -78.17107 36921 ft 463 kts 355°
2026-05-07 23:31 32.67400 -78.16162 36895 ft 466 kts 355°
2026-05-07 23:32 32.73830 -78.15213 36889 ft 466 kts 355°
2026-05-07 23:32 32.80280 -78.14257 36889 ft 466 kts 355°
2026-05-07 23:33 32.86722 -78.13300 36887 ft 466 kts 355°
2026-05-07 23:33 32.93129 -78.12349 36881 ft 466 kts 355°
2026-05-07 23:34 32.99563 -78.11393 36884 ft 466 kts 355°
2026-05-07 23:34 33.06011 -78.10433 36884 ft 466 kts 355°
2026-05-07 23:35 33.12448 -78.09473 36930 ft 466 kts 354°
2026-05-07 23:35 33.18868 -78.08511 36878 ft 463 kts 354°
2026-05-07 23:36 33.25260 -78.07555 36872 ft 463 kts 354°
2026-05-07 23:36 33.31657 -78.06600 36874 ft 463 kts 354°
2026-05-07 23:37 33.38013 -78.05648 36907 ft 463 kts 354°
2026-05-07 23:37 33.44401 -78.04688 36866 ft 462 kts 354°
2026-05-07 23:38 33.50777 -78.03729 36867 ft 462 kts 354°
2026-05-07 23:38 33.57152 -78.02770 36863 ft 462 kts 354°
2026-05-07 23:39 33.63533 -78.01808 36913 ft 462 kts 353°
2026-05-07 23:39 33.69921 -78.00845 36862 ft 463 kts 353°
2026-05-07 23:40 33.76322 -77.99878 36854 ft 464 kts 353°
2026-05-07 23:40 33.82696 -77.98910 36852 ft 464 kts 353°
2026-05-07 23:41 33.89150 -77.97926 36875 ft 464 kts 353°
2026-05-07 23:41 33.95531 -77.96934 36851 ft 466 kts 353°
2026-05-07 23:42 34.01967 -77.95925 36851 ft 466 kts 353°
2026-05-07 23:42 34.08405 -77.94914 36847 ft 466 kts 353°
2026-05-07 23:43 34.14819 -77.93902 36872 ft 464 kts 353°
2026-05-07 23:43 34.21228 -77.92895 36837 ft 464 kts 353°
2026-05-07 23:44 34.27640 -77.91889 36835 ft 465 kts 353°
2026-05-07 23:44 34.34049 -77.90879 36837 ft 465 kts 353°
2026-05-07 23:45 34.40460 -77.89867 36863 ft 465 kts 353°
2026-05-07 23:45 34.46876 -77.88853 36860 ft 465 kts 353°
2026-05-07 23:46 34.53308 -77.87835 36866 ft 465 kts 353°
2026-05-07 23:46 34.59694 -77.86822 36872 ft 465 kts 353°
2026-05-07 23:47 34.66112 -77.85802 36892 ft 465 kts 353°
2026-05-07 23:47 34.72532 -77.84779 36875 ft 464 kts 353°
2026-05-07 23:48 34.78935 -77.83759 36876 ft 464 kts 352°
2026-05-07 23:48 34.85347 -77.82713 36884 ft 469 kts 355°
2026-05-07 23:49 34.91758 -77.80850 36872 ft 480 kts
2026-05-07 23:49 34.98222 -77.78694 36867 ft 483 kts
2026-05-07 23:50 35.04692 -77.76473 36874 ft 483 kts
2026-05-07 23:50 35.11161 -77.74259 36877 ft 483 kts
2026-05-07 23:51 35.17638 -77.72055 36901 ft 483 kts
2026-05-07 23:51 35.24127 -77.69850 36904 ft 484 kts
2026-05-07 23:52 35.30615 -77.67642 36905 ft 484 kts
2026-05-07 23:52 35.37058 -77.65443 36907 ft 484 kts
2026-05-07 23:53 35.43541 -77.63228 36906 ft 484 kts
2026-05-07 23:53 35.50026 -77.61008 36907 ft 484 kts
2026-05-07 23:54 35.56508 -77.58786 36906 ft 484 kts
2026-05-07 23:54 35.62989 -77.56560 36937 ft 484 kts
2026-05-07 23:55 35.69495 -77.54325 36923 ft 486 kts
2026-05-07 23:55 35.76007 -77.52104 36926 ft 485 kts
2026-05-07 23:56 35.82528 -77.49969 36923 ft 484 kts 360°
2026-05-07 23:56 35.89043 -77.47859 36926 ft 483 kts 360°
2026-05-07 23:57 35.95541 -77.45744 36925 ft 483 kts 360°
2026-05-07 23:57 36.02034 -77.43622 36923 ft 483 kts 360°
2026-05-07 23:58 36.08527 -77.41494 37019 ft 483 kts 359°
2026-05-07 23:58 36.14982 -77.39372 36927 ft 481 kts 359°
2026-05-07 23:59 36.21446 -77.37244 36926 ft 481 kts 359°
2026-05-07 23:59 36.27915 -77.35115 36926 ft 481 kts 359°
2026-05-08 00:00 36.34389 -77.32979 36936 ft 481 kts 359°
2026-05-08 00:00 36.40857 -77.30841 36927 ft 481 kts 359°
2026-05-08 00:01 36.47332 -77.28697 36926 ft 481 kts 359°
2026-05-08 00:01 36.53758 -77.26564 36925 ft 481 kts 359°
2026-05-08 00:02 36.60228 -77.24414 36936 ft 481 kts 359°
2026-05-08 00:02 36.66699 -77.22260 36922 ft 481 kts 359°
2026-05-08 00:03 36.73176 -77.20101 36929 ft 482 kts 359°
2026-05-08 00:03 36.79658 -77.17936 36954 ft 482 kts 359°
2026-05-08 00:04 36.86132 -77.15768 36924 ft 482 kts 359°
2026-05-08 00:04 36.92614 -77.13595 36921 ft 482 kts 359°
2026-05-08 00:05 36.99051 -77.11434 36925 ft 482 kts 359°
2026-05-08 00:05 37.05534 -77.09254 36879 ft 482 kts 359°
2026-05-08 00:06 37.08778 -77.08162 36630 ft 483 kts 359°
2026-05-08 00:06 37.12024 -77.07069 36387 ft 484 kts 359°
2026-05-08 00:06 37.15277 -77.05973 36146 ft 484 kts 359°
2026-05-08 00:06 37.18534 -77.04873 35894 ft 485 kts 359°
2026-05-08 00:07 37.21787 -77.03773 35652 ft 485 kts 359°
2026-05-08 00:07 37.25050 -77.02668 35473 ft 485 kts 359°
2026-05-08 00:07 37.28319 -77.01562 35236 ft 486 kts 359°
2026-05-08 00:07 37.31587 -77.00455 35005 ft 487 kts 359°
2026-05-08 00:08 37.38144 -76.98229 34935 ft 488 kts 359°
2026-05-08 00:08 37.44699 -76.95922 34929 ft 500 kts
2026-05-08 00:09 37.47881 -76.93858 34978 ft 525 kts 19°
2026-05-08 00:09 37.50950 -76.91313 34932 ft 531 kts 21°
2026-05-08 00:09 37.56992 -76.86015 34727 ft 533 kts 22°
2026-05-08 00:10 37.60024 -76.83337 34495 ft 533 kts 22°
2026-05-08 00:10 37.63069 -76.80649 34267 ft 534 kts 22°
2026-05-08 00:10 37.66115 -76.77959 34037 ft 535 kts 22°
2026-05-08 00:10 37.69200 -76.75389 33783 ft 523 kts 15°
2026-05-08 00:11 37.72435 -76.73498 33523 ft 501 kts
2026-05-08 00:11 37.75719 -76.72159 33261 ft 493 kts
2026-05-08 00:11 37.79008 -76.70968 33012 ft 492 kts
2026-05-08 00:11 37.82303 -76.69808 32928 ft 492 kts
2026-05-08 00:12 37.88874 -76.67029 32927 ft 511 kts 11°
2026-05-08 00:12 37.95305 -76.63036 32920 ft 515 kts 14°
2026-05-08 00:13 38.00627 -76.59639 32917 ft 514 kts 14°
2026-05-08 00:13 38.07019 -76.55566 32916 ft 514 kts 14°
2026-05-08 00:14 38.13412 -76.51494 32937 ft 514 kts 15°
2026-05-08 00:14 38.19788 -76.47423 32917 ft 512 kts 15°
2026-05-08 00:15 38.26166 -76.43349 32906 ft 513 kts 15°
2026-05-08 00:15 38.29309 -76.41129 32883 ft 524 kts 22°
2026-05-08 00:15 38.32301 -76.38424 32896 ft 530 kts 27°
2026-05-08 00:16 38.38166 -76.32706 32628 ft 530 kts 28°
2026-05-08 00:16 38.41091 -76.29833 32375 ft 530 kts 28°
2026-05-08 00:16 38.44011 -76.26968 32126 ft 530 kts 28°
2026-05-08 00:17 38.46936 -76.24098 31883 ft 530 kts 28°
2026-05-08 00:17 38.49825 -76.21263 31640 ft 530 kts 28°
2026-05-08 00:17 38.52748 -76.18393 31395 ft 530 kts 28°
2026-05-08 00:17 38.55677 -76.15515 31205 ft 531 kts 28°
2026-05-08 00:18 38.58601 -76.12640 30933 ft 531 kts 28°
2026-05-08 00:18 38.61527 -76.09758 30691 ft 531 kts 28°
2026-05-08 00:18 38.64476 -76.06924 30457 ft 529 kts 27°
2026-05-08 00:18 38.67448 -76.04147 30220 ft 529 kts 27°
2026-05-08 00:19 38.70423 -76.01376 29856 ft 526 kts 27°
2026-05-08 00:19 38.73364 -75.98629 29404 ft 520 kts 27°
2026-05-08 00:19 38.76271 -75.95909 28926 ft 515 kts 27°
2026-05-08 00:19 38.79153 -75.93210 28444 ft 509 kts 27°
2026-05-08 00:20 38.81997 -75.90544 27966 ft 504 kts 27°
2026-05-08 00:20 38.84812 -75.87902 27498 ft 499 kts 27°
2026-05-08 00:20 38.87600 -75.85284 27043 ft 494 kts 27°
2026-05-08 00:20 38.90359 -75.82690 26585 ft 489 kts 28°
2026-05-08 00:21 38.93060 -75.80149 26145 ft 485 kts 28°
2026-05-08 00:21 38.95768 -75.77596 25725 ft 480 kts 28°
2026-05-08 00:21 38.98448 -75.75064 25288 ft 476 kts 28°
2026-05-08 00:21 39.01115 -75.72544 24859 ft 473 kts 28°
2026-05-08 00:22 39.03758 -75.70044 24406 ft 471 kts 29°
2026-05-08 00:22 39.06385 -75.67555 23943 ft 467 kts 29°
2026-05-08 00:22 39.08996 -75.65080 23488 ft 464 kts 29°
2026-05-08 00:22 39.11585 -75.62622 22950 ft 461 kts 29°
2026-05-08 00:23 39.14163 -75.60173 22450 ft 458 kts 30°
2026-05-08 00:23 39.16719 -75.57743 21921 ft 455 kts 30°
2026-05-08 00:23 39.19255 -75.55329 21406 ft 451 kts 30°
2026-05-08 00:23 39.21768 -75.52936 20898 ft 448 kts 30°
2026-05-08 00:24 39.24286 -75.50600 20398 ft 443 kts 28°
2026-05-08 00:24 39.26811 -75.48352 19903 ft 439 kts 28°
2026-05-08 00:24 39.29325 -75.46130 19452 ft 435 kts 28°
2026-05-08 00:24 39.31816 -75.43927 19243 ft 438 kts 28°
2026-05-08 00:25 39.34396 -75.41654 19142 ft 458 kts 28°
2026-05-08 00:25 39.37047 -75.39307 19016 ft 465 kts 29°
2026-05-08 00:25 39.39713 -75.36934 18890 ft 465 kts 29°
2026-05-08 00:25 39.42379 -75.34557 18775 ft 465 kts 29°
2026-05-08 00:26 39.45007 -75.32211 18661 ft 464 kts 29°
2026-05-08 00:26 39.47670 -75.29836 18444 ft 468 kts 29°
2026-05-08 00:26 39.50363 -75.27429 18206 ft 472 kts 30°
2026-05-08 00:26 39.53039 -75.24958 17973 ft 473 kts 31°
2026-05-08 00:27 39.55705 -75.22460 17700 ft 472 kts 31°
2026-05-08 00:27 39.58360 -75.19965 17428 ft 470 kts 31°
2026-05-08 00:27 39.60982 -75.17500 17160 ft 461 kts 31°
2026-05-08 00:27 39.63558 -75.15077 16912 ft 455 kts 31°
2026-05-08 00:28 39.66108 -75.12680 16653 ft 452 kts 31°
2026-05-08 00:28 39.68671 -75.10342 16396 ft 448 kts 29°
2026-05-08 00:28 39.71227 -75.08127 16144 ft 435 kts 28°
2026-05-08 00:28 39.73717 -75.05987 15888 ft 423 kts 28°
2026-05-08 00:29 39.76137 -75.03908 15636 ft 411 kts 28°
2026-05-08 00:29 39.78495 -75.01879 15393 ft 401 kts 27°
2026-05-08 00:29 39.80800 -74.99895 15146 ft 393 kts 27°
2026-05-08 00:29 39.83104 -74.97915 14903 ft 404 kts 27°
2026-05-08 00:30 39.85451 -74.95875 14651 ft 406 kts 29°
2026-05-08 00:30 39.87772 -74.93785 14409 ft 403 kts 29°
2026-05-08 00:30 39.90064 -74.91705 14170 ft 401 kts 29°
2026-05-08 00:30 39.92287 -74.89505 13956 ft 404 kts 38°
2026-05-08 00:31 39.94262 -74.86908 13731 ft 402 kts 44°
2026-05-08 00:31 39.96128 -74.84244 13421 ft 394 kts 44°
2026-05-08 00:31 39.97952 -74.81610 13027 ft 388 kts 44°
2026-05-08 00:31 39.99752 -74.79013 12632 ft 383 kts 44°
2026-05-08 00:32 40.01528 -74.76458 12242 ft 378 kts 44°
2026-05-08 00:32 40.03281 -74.73937 11864 ft 373 kts 44°
2026-05-08 00:32 40.05012 -74.71449 11486 ft 367 kts 44°
2026-05-08 00:32 40.06699 -74.69024 11139 ft 362 kts 44°
2026-05-08 00:33 40.08359 -74.66633 11003 ft 348 kts 44°
2026-05-08 00:33 40.09968 -74.64313 10993 ft 332 kts 43°
2026-05-08 00:33 40.11475 -74.62141 11002 ft 323 kts 44°
2026-05-08 00:33 40.12981 -74.59976 10998 ft 321 kts 44°
2026-05-08 00:34 40.14485 -74.57812 10996 ft 322 kts 44°
2026-05-08 00:34 40.15990 -74.55647 10994 ft 322 kts 44°
2026-05-08 00:34 40.17493 -74.53479 10995 ft 322 kts 44°
2026-05-08 00:34 40.18998 -74.51307 10994 ft 322 kts 44°
2026-05-08 00:35 40.20529 -74.49176 11002 ft 321 kts 41°
2026-05-08 00:35 40.22122 -74.47128 10998 ft 319 kts 39°
2026-05-08 00:35 40.23695 -74.45141 11012 ft 311 kts 39°
2026-05-08 00:35 40.25245 -74.43188 11016 ft 309 kts 39°
2026-05-08 00:36 40.26793 -74.41237 11014 ft 309 kts 39°
2026-05-08 00:36 40.28323 -74.39309 11032 ft 309 kts 39°
2026-05-08 00:36 40.29872 -74.37368 11023 ft 307 kts 39°
2026-05-08 00:36 40.31417 -74.35442 11011 ft 306 kts 39°
2026-05-08 00:37 40.32956 -74.33500 10920 ft 308 kts 39°
2026-05-08 00:37 40.34499 -74.31533 10637 ft 310 kts 40°
2026-05-08 00:38 40.40928 -74.23340 8702 ft 309 kts 40°
2026-05-08 00:38 40.42468 -74.21382 8269 ft 308 kts 41°
2026-05-08 00:38 40.43997 -74.19426 7838 ft 307 kts 43°
2026-05-08 00:39 40.45434 -74.17357 7418 ft 305 kts 47°
2026-05-08 00:39 40.46780 -74.15278 7148 ft 293 kts 48°
2026-05-08 00:39 40.48070 -74.13289 6888 ft 280 kts 47°
2026-05-08 00:39 40.49323 -74.11370 6588 ft 274 kts 47°
2026-05-08 00:40 40.50144 -74.10122 6407 ft 272 kts 47°
2026-05-08 00:40 40.51471 -74.08381 6102 ft 267 kts 36°
2026-05-08 00:40 40.52993 -74.07017 5786 ft 262 kts 30°
2026-05-08 00:40 40.54547 -74.05798 5484 ft 259 kts 28°
2026-05-08 00:41 40.56111 -74.04625 5176 ft 257 kts 28°
2026-05-08 00:41 40.57661 -74.03483 4872 ft 254 kts 27°
2026-05-08 00:41 40.59199 -74.02359 4568 ft 252 kts 28°
2026-05-08 00:41 40.60730 -74.01244 4209 ft 250 kts 27°
2026-05-08 00:42 40.62232 -74.00153 3872 ft 241 kts 27°
2026-05-08 00:42 40.63661 -73.99113 3543 ft 229 kts 27°
2026-05-08 00:42 40.65001 -73.98139 3261 ft 218 kts 27°
2026-05-08 00:42 40.66277 -73.97134 3056 ft 208 kts 30°
2026-05-08 00:43 40.67442 -73.96152 3011 ft 189 kts 30°
2026-05-08 00:43 40.68484 -73.95256 2993 ft 170 kts 31°
2026-05-08 00:43 40.69425 -73.94377 2780 ft 163 kts 36°
2026-05-08 00:43 40.70246 -73.93418 2525 ft 157 kts 43°
2026-05-08 00:44 40.70990 -73.92345 2232 ft 158 kts 47°
2026-05-08 00:44 40.71630 -73.91211 2003 ft 154 kts 55°
2026-05-08 00:44 40.72117 -73.89978 1862 ft 145 kts 64°
2026-05-08 00:44 40.72413 -73.88748 1729 ft 136 kts 75°
2026-05-08 00:45 40.72588 -73.87530 1531 ft 134 kts 75°
2026-05-08 00:45 40.72757 -73.86328 1389 ft 140 kts 75°
2026-05-08 00:45 40.73014 -73.85105 1336 ft 135 kts 67°
2026-05-08 00:45 40.73478 -73.84049 1118 ft 134 kts 39°
2026-05-08 00:46 40.74278 -73.83461 911 ft 133 kts 17°
2026-05-08 00:46 40.75207 -73.83351 633 ft 136 kts 351°
2026-05-08 00:46 40.76082 -73.83765 501 ft 132 kts 326°
2026-05-08 00:46 40.76693 -73.84685 233 ft 137 kts 308°
2026-05-08 00:47 40.77214 -73.85731 50 ft 134 kts 306°
2026-05-08 00:47 40.77666 -73.86668 18 ft 101 kts 302°
2026-05-08 00:47 40.77891 -73.87141 17 ft 27 kts 301°
2026-05-08 00:47 40.77904 -73.87308 18 ft 10 kts 247°
2026-05-08 00:48 40.77894 -73.87339 17 ft 0 kts 245°
2026-05-08 00:48 40.77892 -73.87344 17 ft 2 kts 242°
2026-05-08 00:48 40.77887 -73.87346 18 ft 2 kts 191°
2026-05-08 00:49 40.77852 -73.87298 17 ft 15 kts 121°
2026-05-08 00:49 40.77790 -73.87165 16 ft 18 kts 123°
2026-05-08 00:49 40.77720 -73.87020 16 ft 20 kts 122°
2026-05-08 00:49 40.77645 -73.86862 16 ft 21 kts 122°
2026-05-08 00:50 40.77561 -73.86687 15 ft 23 kts 122°
2026-05-08 00:50 40.77472 -73.86500 17 ft 25 kts 122°
2026-05-08 00:50 40.77378 -73.86300 16 ft 26 kts 122°
2026-05-08 00:50 40.77282 -73.86104 16 ft 26 kts 121°
2026-05-08 00:51 40.77195 -73.85921 16 ft 16 kts 122°
2026-05-08 00:51 40.77102 -73.85873 14 ft 17 kts 214°
2026-05-08 00:51 40.77035 -73.85935 22 ft 7 kts 195°
2026-05-08 00:51 40.76979 -73.85933 22 ft 8 kts 184°
2026-05-08 00:52 40.76936 -73.85908 23 ft 8 kts 136°
2026-05-08 00:52 40.76911 -73.85872 23 ft 2 kts 131°
2026-05-08 00:52 40.76903 -73.85860 24 ft 0 kts 131°
2026-05-08 00:52 40.76901 -73.85857 24 ft 0 kts 131°